N0YK Weather Reports


time (UTC)temp
C
wind
direction
speed
KPH
gust
KPH
rain 1hr
cm
rain 24hr
cm
rain mn
cm
humidity
%
barometer
mb
20260507144502 11 235 6.4 19.3 0.00 0.18 0.00 74 1017.4
20260507144003 11 256 6.4 17.7 0.00 0.20 0.00 75 1017.3
20260507143503 11 226 6.4 17.7 0.00 0.20 0.00 77 1017.4
20260507143002 10 218 9.7 20.9 0.00 0.23 0.00 75 1017.6
20260507142502 10 221 6.4 20.9 0.00 0.23 0.00 78 1017.7
20260507142002 10 230 8.0 17.7 0.00 0.23 0.00 79 1017.8
20260507141503 9 241 9.7 17.7 0.00 0.25 0.00 80 1017.8
20260507141002 8 239 8.0 20.9 0.00 0.25 0.00 80 1017.8
20260507140503 8 230 9.7 20.9 0.00 0.28 0.00 81 1017.8
20260507140002 8 235 8.0 17.7 0.00 0.28 0.00 82 1017.8
20260507135524 7 241 12.9 17.7 0.00 0.28 0.00 82 1017.8
20260507135002 7 244 9.7 17.7 0.00 0.28 0.00 84 1017.9
20260507134503 7 238 8.0 16.1 0.00 0.30 0.00 85 1017.9
20260507134002 6 246 6.4 19.3 0.00 0.30 0.00 87 1018.0
20260507133503 6 236 8.0 19.3 0.00 0.99 0.00 87 1017.7
20260507133002 5 243 4.8 11.3 0.00 0.30 0.00 88 1017.7
20260507132503 5 211 4.8 12.9 0.00 0.33 0.00 88 1017.7
20260507132023 5 223 6.4 17.7 0.00 0.36 0.00 89 1017.9
20260507131502 4 300 6.4 17.7 0.00 0.36 0.00 89 1018.0
20260507131002 4 225 4.8 11.3 0.00 0.36 0.00 90 1018.0
20260507130502 3 207 4.8 9.7 0.00 0.38 0.00 90 1017.9
20260507130002 3 247 4.8 12.9 0.00 0.38 0.00 90 1018.1
20260507125502 3 235 4.8 12.9 0.00 0.38 0.00 91 1017.9
20260507125023 3 219 4.8 11.3 0.00 0.41 0.00 91 1018.0
20260507124544 2 209 4.8 11.3 0.00 0.41 0.00 91 1017.8
20260507124003 2 229 4.8 9.7 0.00 0.41 0.00 92 1018.0
20260507123502 2 226 4.8 8.0 0.00 0.43 0.00 92 1018.1
20260507123002 1 225 3.2 8.0 0.00 0.43 0.00 92 1018.2
20260507122503 1 224 3.2 8.0 0.00 0.46 0.00 92 1018.2
20260507122002 1 221 3.2 9.7 0.00 0.46 0.00 92 1018.4
20260507121503 1 200 3.2 9.7 0.00 0.46 0.00 92 1018.3
20260507121002 1 215 4.8 6.4 0.00 0.48 0.00 92 1018.3
20260507120503 0 253 4.8 6.4 0.00 0.48 0.00 92 1018.4
20260507120002 0 253 3.2 4.8 0.00 0.48 0.00 92 1018.4
20260507115502 0 253 1.6 4.8 0.00 0.51 0.00 92 1018.5
20260507115003 0 253 1.6 4.8 0.00 0.51 0.00 92 1018.4
20260507114502 0 253 1.6 4.8 0.00 0.51 0.00 92 1018.5
20260507114003 0 267 3.2 4.8 0.00 0.53 0.00 92 1018.5
20260507113523 0 106 1.6 4.8 0.00 0.53 0.00 92 1018.6
20260507113003 1 258 1.6 8.0 0.00 0.53 0.00 92 1018.5
20260507112523 1 200 3.2 8.0 0.00 0.53 0.00 92 1018.5
20260507112003 1 219 4.8 8.0 0.00 0.56 0.00 92 1018.4
20260507111503 1 221 4.8 6.4 0.00 0.56 0.00 92 1018.5
20260507111003 1 206 1.6 6.4 0.00 0.58 0.00 92 1018.6
20260507110502 1 234 3.2 6.4 0.00 0.58 0.00 91 1018.5
20260507110002 1 234 1.6 4.8 0.00 0.58 0.00 92 1018.6
20260507105502 1 234 1.6 8.0 0.00 0.61 0.00 92 1018.7
20260507105002 1 230 3.2 8.0 0.00 0.61 0.00 92 1018.7
20260507104503 1 203 4.8 8.0 0.00 0.61 0.00 92 1018.8
20260507104003 1 245 3.2 8.0 0.00 0.64 0.00 92 1019.1
20260507103502 1 217 4.8 8.0 0.00 0.64 0.00 92 1019.0
20260507103002 1 244 3.2 8.0 0.00 0.66 0.00 92 1019.1
20260507102502 1 214 4.8 9.7 0.00 0.66 0.00 92 1019.0
20260507102002 1 218 4.8 9.7 0.00 0.69 0.00 92 1019.2
20260507101502 1 204 3.2 8.0 0.00 0.69 0.00 92 1019.1
20260507101002 1 205 4.8 8.0 0.00 0.69 0.00 92 1019.2
20260507100502 1 218 4.8 8.0 0.00 0.69 0.00 92 1019.3
20260507100002 1 217 4.8 9.7 0.00 0.71 0.00 92 1019.3
20260507095502 1 236 3.2 9.7 0.00 0.71 0.00 92 1019.4
20260507095002 1 263 4.8 9.7 0.00 0.71 0.00 92 1019.5
20260507094503 1 242 4.8 9.7 0.00 0.71 0.00 92 1019.5
20260507094003 1 254 3.2 9.7 0.00 0.74 0.00 92 1019.6
20260507093502 1 217 3.2 8.0 0.00 0.74 0.00 91 1019.6
20260507093003 1 237 3.2 9.7 0.00 0.74 0.00 91 1019.7
20260507092524 1 232 3.2 9.7 0.00 0.74 0.00 91 1019.7
20260507092002 1 214 4.8 9.7 0.00 0.74 0.00 91 1019.7
20260507091503 1 216 4.8 9.7 0.00 0.74 0.00 91 1019.7
20260507091002 1 243 4.8 11.3 0.00 0.76 0.00 91 1019.7
20260507090523 1 229 4.8 11.3 0.00 0.76 0.00 92 1019.7
20260507090002 1 210 6.4 14.5 0.00 0.76 0.00 92 1019.5
20260507085502 1 214 6.4 14.5 0.00 0.76 0.00 92 1019.7
20260507085023 1 213 6.4 14.5 0.00 0.76 0.00 92 1019.7
20260507084523 1 221 6.4 14.5 0.00 0.76 0.00 92 1019.7
20260507084003 1 219 6.4 11.3 0.00 0.76 0.00 92 1019.7
20260507083502 1 221 6.4 11.3 0.00 0.76 0.00 92 1019.9
20260507083003 1 221 4.8 11.3 0.00 0.76 0.00 92 1020.1
20260507082523 1 234 4.8 12.9 0.00 0.76 0.00 92 1020.1
20260507082002 1 236 6.4 12.9 0.00 0.79 0.00 92 1020.2
20260507081503 1 232 4.8 12.9 0.00 0.79 0.00 92 1020.2
20260507081002 1 216 6.4 12.9 0.00 0.79 0.00 92 1020.4
20260507080503 1 237 4.8 12.9 0.00 0.79 0.00 92 1020.5
20260507080002 1 226 4.8 11.3 0.00 0.79 0.00 92 1020.6
20260507075502 1 245 6.4 11.3 0.00 0.79 0.00 92 1020.7
20260507075023 1 221 4.8 9.7 0.00 0.79 0.00 92 1020.8
20260507074523 1 248 3.2 9.7 0.00 0.79 0.00 92 1020.8
20260507074024 1 240 3.2 8.0 0.00 0.79 0.00 91 1020.8
20260507073502 2 233 3.2 8.0 0.00 0.81 0.00 91 1021.0
20260507073003 2 217 3.2 9.7 0.00 0.81 0.00 92 1021.0
20260507072502 2 239 3.2 9.7 0.00 0.81 0.00 92 1021.0
20260507072024 2 241 3.2 12.9 0.00 0.81 0.00 92 1021.1
20260507071503 2 224 4.8 12.9 0.00 0.81 0.00 92 1021.1
20260507071002 2 219 6.4 12.9 0.00 0.84 0.00 92 1021.1
20260507070503 2 221 4.8 12.9 0.00 0.84 0.00 91 1021.2
20260507070023 2 213 6.4 11.3 0.00 0.84 0.00 91 1021.2
20260507065502 2 212 6.4 11.3 0.00 0.84 0.00 91 1021.3
20260507065003 2 212 4.8 11.3 0.00 0.84 0.00 91 1021.4
20260507064502 2 207 6.4 11.3 0.00 0.86 0.00 91 1021.4
20260507064024 2 211 4.8 11.3 0.00 0.86 0.00 91 1021.4
20260507063502 2 206 4.8 11.3 0.00 0.86 0.00 91 1021.5
20260507063003 2 216 4.8 9.7 0.00 0.86 0.00 91 1021.5
20260507062502 2 215 6.4 11.3 0.00 0.86 0.00 91 1021.6
20260507062002 2 213 6.4 12.9 0.00 0.86 0.00 91 1021.5
20260507061503 2 210 4.8 12.9 0.00 0.86 0.00 91 1021.7
20260507061002 2 215 4.8 9.7 0.00 0.86 0.00 91 1021.6
20260507060503 2 218 4.8 9.7 0.00 0.86 0.00 91 1021.8
20260507060002 2 235 3.2 9.7 0.00 0.89 0.00 91 1021.8
20260507055523 2 226 3.2 11.3 0.00 0.89 0.00 91 1021.8
20260507055003 2 225 4.8 11.3 0.00 0.89 0.00 91 1021.8
20260507054024 2 228 3.2 9.7 0.00 0.91 0.00 91 1021.9
20260507053502 2 243 3.2 11.3 0.00 0.91 0.00 91 1021.9
20260507053003 2 228 4.8 11.3 0.00 0.94 0.00 91 1021.8
20260507052502 2 222 4.8 9.7 0.00 0.97 0.00 91 1022.0
20260507052003 2 208 4.8 11.3 0.00 0.97 0.00 91 1022.0
20260507051502 2 208 6.4 11.3 0.00 0.99 0.00 91 1022.0
20260507051002 2 216 4.8 9.7 0.00 1.40 0.99 91 1021.9
20260507050502 2 211 4.8 8.0 0.00 1.40 0.99 91 1021.9
20260507050002 2 207 4.8 8.0 0.00 0.99 0.99 91 1022.0
20260507045502 3 207 4.8 9.7 0.00 1.02 0.99 91 1022.0
20260507045023 3 209 4.8 11.3 0.00 1.04 0.99 91 1022.1
20260507044502 3 212 6.4 11.3 0.00 1.07 0.99 91 1022.1
20260507044003 3 210 6.4 9.7 0.00 1.09 0.99 91 1022.2
20260507043502 3 200 4.8 9.7 0.00 1.12 0.99 91 1022.3
20260507043003 3 224 4.8 9.7 0.00 1.14 0.99 91 1022.2
20260507042502 3 217 4.8 9.7 0.00 1.14 0.99 91 1022.2
20260507042002 3 201 4.8 11.3 0.00 1.17 0.99 91 1022.1
20260507041502 3 212 6.4 11.3 0.00 1.17 0.99 91 1022.2
20260507041002 3 216 4.8 8.0 0.00 1.19 0.99 91 1022.3
20260507040502 3 211 3.2 8.0 0.00 1.19 0.99 91 1022.2
20260507040002 3 216 3.2 8.0 0.00 1.22 0.99 91 1022.1
20260507035502 3 219 4.8 11.3 0.00 1.24 0.99 91 1022.1
20260507035014 3 229 3.2 11.3 0.00 1.27 0.99 91 1022.3
20260507034503 3 222 3.2 9.7 0.00 1.30 0.99 91 1022.4
20260507034002 3 237 3.2 8.0 0.00 1.32 0.99 90 1022.4
20260507033524 3 226 1.6 8.0 0.00 1.32 0.99 90 1022.3
20260507033002 3 236 4.8 8.0 0.00 1.35 0.99 90 1022.2
20260507032502 3 218 3.2 8.0 0.00 1.37 0.99 90 1022.3
20260507032002 3 224 3.2 8.0 0.00 1.37 0.99 90 1022.2
20260507031502 3 223 1.6 11.3 0.00 1.37 0.99 90 1022.2
20260507031003 3 233 4.8 12.9 0.00 1.40 0.99 90 1022.1
20260507030502 3 237 6.4 12.9 0.00 1.40 0.99 90 1022.2
20260507030002 3 233 4.8 8.0 0.00 1.40 0.99 90 1022.2
20260507025502 3 240 3.2 8.0 0.00 1.40 0.99 90 1022.0
20260507025002 3 243 3.2 8.0 0.00 1.40 0.99 89 1021.9
20260507024502 3 237 4.8 8.0 0.00 1.40 0.99 89 1021.8
20260507024002 4 247 1.6 6.4 0.00 1.40 0.99 89 1021.7
20260507023503 4 229 3.2 4.8 0.00 1.40 0.99 88 1021.7
20260507023002 4 227 1.6 4.8 0.00 1.40 0.99 88 1021.7
20260507022503 5 228 3.2 6.4 0.00 1.40 0.99 88 1021.6
20260507022002 5 229 3.2 6.4 0.00 1.40 0.99 88 1021.6
20260507021502 5 247 3.2 6.4 0.00 1.40 0.99 87 1021.5
20260507021002 5 256 3.2 6.4 0.00 1.40 0.99 87 1021.4
20260507020502 5 253 3.2 4.8 0.00 1.40 0.99 87 1021.3
20260507020002 6 251 1.6 8.0 0.00 1.40 0.99 86 1021.2
20260507015502 6 259 3.2 8.0 0.00 1.40 0.99 86 1021.2
20260507015003 6 249 4.8 8.0 0.00 1.40 0.99 86 1021.3
20260507014502 6 253 6.4 8.0 0.00 1.40 0.99 86 1021.3
20260507014002 6 254 4.8 9.7 0.00 1.40 0.99 86 1021.3
20260507013524 6 253 6.4 11.3 0.00 1.40 0.99 85 1021.1
20260507013002 6 256 8.0 11.3 0.00 1.40 0.99 85 1021.1
20260507012503 7 258 4.8 9.7 0.00 1.40 0.99 85 1021.1
20260507012002 7 251 6.4 9.7 0.00 1.40 0.99 85 1021.1
20260507011503 7 252 6.4 9.7 0.00 1.40 0.99 85 1021.1
20260507010524 7 257 0.0 0.0 0.00 1.40 0.99 85 1020.9
20260507010002 7 257 0.0 0.0 0.00 1.40 0.99 85 1020.9
20260507005502 7 270 0.0 9.7 0.00 1.40 0.99 85 1021.0
20260507005002 7 273 0.0 9.7 0.00 1.40 0.99 84 1021.0
20260507004502 7 254 6.4 9.7 0.00 1.40 0.99 84 1021.1
20260507004003 7 256 4.8 9.7 0.00 1.40 0.99 83 1021.0
20260507003502 7 243 4.8 9.7 0.00 1.40 0.99 82 1021.1
20260507003003 7 258 6.4 11.3 0.00 1.40 0.99 82 1021.1
20260507002523 7 266 4.8 11.3 0.00 1.40 0.99 84 1021.1
20260507002002 7 272 6.4 11.3 0.00 1.40 0.99 85 1021.0
20260507001503 7 260 6.4 11.3 0.00 1.40 0.99 84 1020.9
20260507001002 7 266 6.4 11.3 0.00 1.40 0.99 85 1021.0
20260507000502 7 255 6.4 12.9 0.00 1.40 0.99 84 1021.1
20260507000002 7 253 6.4 16.1 0.03 1.40 0.99 85 1021.1
20260506235502 7 260 9.7 16.1 0.03 1.40 0.99 85 1021.6
20260506235002 7 266 8.0 17.7 0.03 1.40 0.99 86 1021.7
20260506234502 7 254 11.3 17.7 0.03 1.40 0.99 86 1021.5
20260506234002 7 252 8.0 16.1 0.03 1.40 0.99 85 1021.4
20260506233523 7 256 11.3 16.1 0.03 1.40 0.99 86 1021.4
20260506233003 7 256 8.0 12.9 0.00 1.37 0.97 86 1021.4
20260506232502 7 252 6.4 9.7 0.00 1.37 0.97 86 1021.4
20260506232002 7 252 6.4 11.3 0.00 1.37 0.97 85 1021.3
20260506231502 7 263 6.4 11.3 0.00 1.37 0.97 85 1021.4
20260506231002 7 257 8.0 11.3 0.00 1.40 0.97 85 1021.3
20260506230502 7 245 3.2 9.7 0.00 1.40 0.97 85 1021.2
20260506230002 7 251 6.4 9.7 0.00 1.40 0.97 85 1021.3
20260506225523 7 240 4.8 9.7 0.00 1.40 0.97 85 1021.3
20260506225002 7 240 4.8 9.7 0.00 1.40 0.97 86 1021.3
20260506224503 7 257 3.2 9.7 0.00 1.40 0.97 86 1021.3
20260506224002 7 238 4.8 8.0 0.00 1.42 0.97 86 1021.2
20260506223502 7 239 3.2 8.0 0.00 1.42 0.97 85 1021.2
20260506223002 7 261 3.2 8.0 0.00 1.42 0.97 85 1021.1
20260506222502 7 249 6.4 8.0 0.00 1.45 0.97 85 1021.1
20260506222023 7 246 4.8 8.0 0.00 1.45 0.97 84 1021.2
20260506221502 7 245 4.8 9.7 0.00 1.47 0.97 84 1021.1
20260506221003 7 265 4.8 11.3 0.00 1.50 0.97 84 1021.1
20260506220502 7 251 6.4 11.3 0.00 1.50 0.97 84 1021.1
20260506220002 7 241 1.6 9.7 0.03 1.52 0.97 84 1021.3
20260506215503 7 250 4.8 8.0 0.03 1.52 0.97 83 1021.3
20260506215002 7 238 3.2 8.0 0.03 1.55 0.97 83 1021.2
20260506214502 7 236 3.2 6.4 0.03 1.55 0.97 83 1021.2
20260506214002 7 240 1.6 6.4 0.03 1.55 0.97 83 1021.2
20260506213502 7 142 0.0 3.2 0.03 1.55 0.97 83 1021.2
20260506213002 7 139 0.0 3.2 0.03 1.55 0.97 83 1021.3
20260506212502 7 181 1.6 3.2 0.03 1.55 0.97 83 1021.2
20260506212003 7 182 0.0 3.2 0.00 1.52 0.94 84 1021.4
20260506211502 7 181 1.6 3.2 0.00 1.52 0.94 84 1021.4
20260506211002 7 181 0.0 3.2 0.00 1.52 0.94 82 1021.4
20260506210502 7 181 0.0 3.2 0.00 1.52 0.94 83 1021.5
20260506210002 8 178 1.6 8.0 0.00 1.52 0.94 83 1021.4
20260506205502 8 146 3.2 9.7 0.00 1.52 0.94 82 1021.3
20260506205002 8 156 1.6 9.7 0.00 1.52 0.94 83 1021.4
20260506204502 8 156 1.6 4.8 0.00 1.52 0.94 83 1021.5
20260506204002 8 156 1.6 8.0 0.00 1.52 0.94 83 1021.5
20260506203502 8 156 3.2 8.0 0.00 1.52 0.94 83 1021.5
20260506203002 8 156 3.2 9.7 0.00 1.52 0.94 83 1021.6
20260506202503 8 157 3.2 9.7 0.00 1.52 0.94 83 1021.5
20260506202023 8 199 1.6 8.0 0.00 1.52 0.94 84 1021.6
20260506201502 7 153 3.2 8.0 0.00 1.52 0.94 85 1021.7
20260506201023 7 153 3.2 6.4 0.00 1.52 0.94 87 1021.7
20260506200523 7 153 0.0 6.4 0.00 1.52 0.94 85 1021.7
20260506200003 7 153 1.6 8.0 0.00 1.52 0.94 86 1021.8
20260506195502 7 153 1.6 8.0 0.00 1.52 0.94 86 1021.7
20260506195002 7 153 3.2 8.0 0.00 1.52 0.94 86 1021.8
20260506194502 7 153 0.0 4.8 0.00 1.52 0.94 86 1021.7
20260506194002 7 153 0.0 8.0 0.00 1.52 0.94 85 1021.6
20260506193523 7 153 1.6 8.0 0.00 1.52 0.94 85 1021.8
20260506193002 7 146 0.0 8.0 0.00 1.52 0.94 87 1021.8
20260506192502 7 119 3.2 8.0 0.00 1.52 0.94 88 1021.8
20260506192002 7 69 3.2 8.0 0.00 1.52 0.94 89 1021.8
20260506191503 6 85 1.6 4.8 0.00 1.52 0.94 90 1021.9
20260506191002 6 77 1.6 8.0 0.00 1.52 0.94 90 1021.9
20260506190502 6 70 1.6 8.0 0.00 1.52 0.94 91 1021.9
20260506190002 6 50 4.8 8.0 0.00 1.52 0.94 92 1022.0
20260506185502 6 327 3.2 6.4 0.00 1.52 0.94 92 1022.0
20260506185002 6 327 4.8 6.4 0.00 1.52 0.94 93 1022.3
20260506184502 6 327 1.6 9.7 0.00 1.52 0.94 93 1022.2
20260506184023 6 10 3.2 9.7 0.00 1.52 0.94 93 1022.3
20260506183502 5 328 1.6 8.0 0.00 1.52 0.94 93 1022.2
20260506183002 5 328 3.2 8.0 0.00 1.52 0.94 94 1022.3
20260506182503 5 60 3.2 8.0 0.00 1.52 0.94 94 1022.5
20260506182002 5 59 3.2 8.0 0.00 1.52 0.94 94 1022.4
20260506181502 5 14 3.2 8.0 0.00 1.52 0.94 94 1022.5
20260506181002 5 24 3.2 9.7 0.00 1.52 0.94 94 1022.6
20260506180502 5 6 3.2 9.7 0.00 1.52 0.94 94 1022.6
20260506180003 5 54 4.8 11.3 0.00 1.52 0.94 94 1022.6
20260506175502 5 60 1.6 11.3 0.00 1.52 0.94 94 1022.5
20260506175023 4 44 4.8 11.3 0.00 1.52 0.94 95 1022.6
20260506174502 4 48 4.8 11.3 0.00 1.52 0.94 94 1022.6
20260506174002 4 41 4.8 11.3 0.00 1.52 0.94 94 1022.6
20260506173502 4 333 4.8 9.7 0.00 1.52 0.94 94 1022.7
20260506173002 3 333 4.8 8.0 0.00 1.52 0.94 94 1022.6
20260506172502 3 333 3.2 11.3 0.00 1.52 0.94 94 1022.6
20260506172003 3 16 3.2 11.3 0.00 1.52 0.94 95 1022.6
20260506171545 3 49 3.2 8.0 0.00 1.52 0.94 95 1022.5
20260506171002 3 53 4.8 8.0 0.00 1.52 0.94 94 1022.5
20260506170502 3 32 4.8 8.0 0.00 1.52 0.94 95 1022.5
20260506170002 3 44 3.2 8.0 0.05 1.52 0.94 94 1022.4
20260506165502 3 47 3.2 8.0 0.05 1.52 0.94 94 1022.5
20260506165002 3 47 4.8 8.0 0.05 1.52 0.94 94 1022.5
20260506164502 3 37 3.2 9.7 0.05 1.52 0.94 94 1022.6
20260506164002 2 36 4.8 9.7 0.05 1.52 0.94 94 1022.6
20260506163502 2 17 4.8 9.7 0.05 1.52 0.94 94 1022.5
20260506163002 2 26 1.6 6.4 0.05 1.52 0.94 94 1022.4
20260506162501 2 25 1.6 6.4 0.03 1.50 0.91 94 1022.4
20260506162002 2 29 0.0 6.4 0.03 1.50 0.91 94 1022.3
20260506161002 2 28 1.6 8.0 0.03 1.50 0.91 94 1022.2
20260506160502 2 28 4.8 8.0 0.03 1.50 0.91 94 1022.2
20260506160002 2 319 3.2 8.0 0.00 1.47 0.89 94 1022.2
20260506155503 2 337 1.6 6.4 0.05 1.47 0.89 94 1022.2
20260506155002 2 18 1.6 6.4 0.05 1.47 0.89 94 1022.1
20260506154502 2 18 3.2 6.4 0.05 1.47 0.89 94 1022.1
20260506154002 2 22 1.6 6.4 0.05 1.47 0.89 94 1022.0
20260506153502 2 25 3.2 6.4 0.03 1.45 0.86 94 1021.9
20260506153002 2 303 1.6 6.4 0.03 1.45 0.86 94 1022.0
20260506152502 2 303 3.2 8.0 0.03 1.45 0.86 94 1022.0
20260506152003 2 302 3.2 8.0 0.03 1.45 0.86 94 1022.0
20260506151502 2 269 3.2 8.0 0.03 1.45 0.86 94 1022.1
20260506151002 2 279 3.2 6.4 0.00 1.42 0.84 94 1022.2
20260506150502 2 303 0.0 6.4 0.00 1.42 0.84 94 1022.1
20260506150002 2 303 1.6 6.4 0.13 1.42 0.84 94 1022.0
20260506145502 2 235 3.2 6.4 0.10 1.40 0.81 94 1022.1
20260506145002 2 235 1.6 4.8 0.10 1.40 0.81 94 1022.1